Retour au catalogue

COSMOS 2251

ActifMilitaireLEO
NORAD 22675·PAYLOAD·🇷🇺 Russia

Lancé Jun 16, 1993 depuis Plesetsk Cosmodrome

Loading…

Prochains Passages (prochaines 24 heures)

TLE

FraisSource: Space-Track

Époque: Sep 14, 2026, 12:34 UTC

1 22675U 93036A   26257.52411326  .00000062  00000-0  31916-4 0  9991
2 22675  74.0404 171.9685 0025053 192.1088 167.9464 14.33269118737242

Suivez COSMOS 2251 en temps réel avec AllMySat

Download on the App Store